This is the latest recevied weather packets stored in our database for station/object WZ9ZZZ-1. If no packets are shown the sender has not sent any weather packets the latest 10 day(s).
| Time | Temp. | Humidity | Pressure | Rain* | Wind** | Luminosity | Snow |
|---|---|---|---|---|---|---|---|
| 1777828230 | 25.56° C | 42% | 1026.5 hPa | 0 mm | - | 680 W/m² | - |
| 1777827926 | 26.11° C | 43% | 1026.6 hPa | 0 mm | - | 697 W/m² | - |
| 1777827624 | 26.11° C | 43% | 1026.5 hPa | 0 mm | - | 699 W/m² | - |
| 1777827321 | 25.56° C | 41% | 1026.6 hPa | 0 mm | - | 699 W/m² | - |
| 1777827017 | 26.11° C | 41% | 1026.6 hPa | 0 mm | - | 696 W/m² | - |
| 1777826715 | 26.67° C | 38% | 1026.4 hPa | 0 mm | - | 689 W/m² | - |
| 1777826411 | 26.11° C | 41% | 1026.5 hPa | 0 mm | - | 675 W/m² | - |
| 1777826108 | 26.67° C | 40% | 1026.9 hPa | 0 mm | - | 688 W/m² | - |
| 1777825805 | 26.11° C | 45% | 1026.5 hPa | 0 mm | - | 680 W/m² | - |
| 1777825503 | 25° C | 43% | 1026.5 hPa | 0 mm | - | 663 W/m² | - |
| 1777825200 | 26.11° C | 41% | 1026.6 hPa | 0 mm | - | 660 W/m² | - |
| 1777824896 | 26.11° C | 42% | 1026.4 hPa | 0 mm | - | 644 W/m² | - |
| 1777824592 | 25.56° C | 43% | 1026.6 hPa | 0 mm | - | 643 W/m² | - |
| 1777824290 | 25.56° C | 41% | 1026.5 hPa | 0 mm | - | 645 W/m² | - |
| 1777823984 | 25° C | 44% | 1026.5 hPa | 0 mm | - | 657 W/m² | - |
| 1777823682 | 25° C | 42% | 1026.5 hPa | 0 mm | - | 652 W/m² | - |
| 1777823379 | 25° C | 46% | 1026.4 hPa | 0 mm | - | 638 W/m² | - |
| 1777823077 | 25° C | 44% | 1026.4 hPa | 0 mm | - | 634 W/m² | - |
| 1777822774 | 25.56° C | 44% | 1026.4 hPa | 0 mm | - | 639 W/m² | - |
| 1777822472 | 25.56° C | 44% | 1026.5 hPa | 0 mm | - | 628 W/m² | - |
| 1777822170 | 26.11° C | 43% | 1026.2 hPa | 0 mm | - | 625 W/m² | - |
| 1777821867 | 25.56° C | 42% | 1026.4 hPa | 0 mm | - | 609 W/m² | - |
| 1777821564 | 25° C | 46% | 1026.2 hPa | 0 mm | - | 580 W/m² | - |
| 1777821262 | 24.44° C | 48% | 1025.9 hPa | 0 mm | - | 575 W/m² | - |
| 1777820959 | 24.44° C | 43% | 1026.1 hPa | 0 mm | - | 567 W/m² | - |
* Rain latest hour (hover to see other rain measurements)
** Current wind speed in m/s (hover to see current wind gust speed)